Location: Navajo
(48.7922°N, 105.0603°W)
Time: 15:39:33
(UTC+00:00)

QB50P2 - Pass Details

Date: 29 June 2022
Orbit: 590 x 605 km, 97.9° (Epoch: 06 August)

Event Time Altitude Azimuth Distance (km) Brightness Sun altitude
Rises 07:47:17 0° 22° (NNE) 2,858 ? -17.3°
Reaches altitude 10° 07:49:41 10° 33° (NNE) 1,952 ? -17.3°
Maximum altitude 07:53:27 31° 96° (E) 1,072 ? -17.1°
Enters shadow 07:55:32 20° 142° (SE) 1,396 ? -17.1°
